This is the latest recevied weather packets stored in our database for station/object VR2HK-13. If no packets are shown the sender has not sent any weather packets the latest 10 day(s).
| Time | Temp. | Humidity | Pressure | Rain* | Wind** | Luminosity | Snow |
|---|---|---|---|---|---|---|---|
| 1778222128 | 30° C | 72% | 1011.5 hPa | 16.76 mm | - | - | - |
| 1778221840 | 30.56° C | 72% | 1011.6 hPa | 17.27 mm | - | - | - |
| 1778221829 | 30.56° C | 72% | 1011.6 hPa | 17.27 mm | - | - | - |
| 1778221531 | 30° C | 72% | 1011.7 hPa | 16.76 mm | - | - | - |
| 1778221529 | 30° C | 72% | 1011.7 hPa | 16.76 mm | - | - | - |
| 1778221229 | 30° C | 72% | 1011.7 hPa | 15.49 mm | - | - | - |
| 1778221220 | 30° C | 72% | 1011.7 hPa | 15.49 mm | - | - | - |
| 1778220929 | 30° C | 72% | 1011.7 hPa | 14.48 mm | - | - | - |
| 1778220910 | 30° C | 72% | 1011.7 hPa | 14.48 mm | - | - | - |
| 1778220628 | 30° C | 72% | 1011.7 hPa | 14.99 mm | - | - | - |
| 1778220600 | 30° C | 72% | 1011.7 hPa | 14.99 mm | - | - | - |
| 1778220329 | 30° C | 73% | 1011.7 hPa | 13.72 mm | - | - | - |
| 1778220290 | 30° C | 73% | 1011.8 hPa | 13.72 mm | - | - | - |
| 1778220028 | 30° C | 73% | 1011.8 hPa | 12.95 mm | - | - | - |
| 1778219979 | 30° C | 73% | 1011.8 hPa | 12.95 mm | - | - | - |
| 1778219728 | 29.44° C | 72% | 1011.8 hPa | 13.72 mm | - | - | - |
| 1778219670 | 29.44° C | 72% | 1011.8 hPa | 13.72 mm | - | - | - |
| 1778219428 | 30.56° C | 70% | 1011.8 hPa | 13.72 mm | - | - | - |
| 1778219359 | 31.11° C | 70% | 1011.8 hPa | 13.97 mm | - | - | - |
| 1778219128 | 31.11° C | 71% | 1011.8 hPa | 14.22 mm | - | - | - |
| 1778219050 | 31.11° C | 71% | 1011.8 hPa | 13.72 mm | - | - | - |
| 1778218829 | 30.56° C | 72% | 1011.8 hPa | 13.46 mm | - | - | - |
| 1778218739 | 30° C | 72% | 1011.8 hPa | 13.46 mm | - | - | - |
| 1778218528 | 30° C | 72% | 1011.8 hPa | 14.22 mm | - | - | - |
| 1778218430 | 30° C | 72% | 1011.9 hPa | 13.46 mm | - | - | - |
* Rain latest hour (hover to see other rain measurements)
** Current wind speed in m/s (hover to see current wind gust speed)